DW8534 Weather Reports


Display with metric or nautical units.
time (UTC)temp
F
wind
direction
speed
MPH
gust
MPH
rain 1hr
in
rain 24hr
in
rain mn
in
humidity
%
barometer
mb
20260903194536 88 144 7.0 0.0 0.00 0.00 0.00 66 1007.8
20260903193037 87 193 7.0 0.0 0.00 0.00 0.00 67 1008.0
20260903191532 87 174 7.0 0.0 0.00 0.00 0.00 68 1008.2
20260903190031 88 152 9.0 0.0 0.00 0.00 0.00 67 1008.6
20260903184531 87 130 8.0 0.0 0.00 0.00 0.00 70 1008.7
20260903183028 85 180 9.0 0.0 0.00 0.00 0.00 71 1009.1
20260903181523 84 140 8.0 0.0 0.00 0.00 0.00 75 1009.2
20260903180025 83 144 9.0 0.0 0.00 0.00 0.00 76 1009.3
20260903174524 83 145 8.0 0.0 0.00 0.00 0.00 77 1009.6
20260903173020 83 127 9.0 0.0 0.00 0.00 0.00 77 1009.8
20260903171520 83 146 9.0 0.0 0.00 0.00 0.00 77 1009.8
20260903170018 83 136 8.0 0.0 0.00 0.00 0.00 79 1009.8
20260903164518 84 118 8.0 0.0 0.00 0.00 0.00 78 1009.8
20260903163016 83 128 7.0 0.0 0.00 0.00 0.00 79 1009.8
20260903161515 83 146 6.0 0.0 0.00 0.00 0.00 79 1009.7
20260903160014 83 147 6.0 0.0 0.00 0.00 0.00 80 1009.8
20260903154511 82 142 6.0 0.0 0.00 0.00 0.00 81 1009.7
20260903153010 82 139 6.0 0.0 0.00 0.00 0.00 82 1009.7
20260903151508 81 136 5.0 0.0 0.00 0.00 0.00 83 1009.4
20260903150011 81 144 5.0 0.0 0.00 0.00 0.00 83 1009.7
20260903144525 81 107 4.0 0.0 0.00 0.00 0.00 84 1009.5
20260903143005 80 118 5.0 0.0 0.00 0.00 0.00 84 1009.3
20260903141501 80 131 5.0 0.0 0.00 0.00 0.00 86 1009.2
20260903140100 79 141 4.0 0.0 0.00 0.00 0.00 88 1009.4
20260903134559 78 97 5.0 0.0 0.00 0.00 0.00 89 1009.3
20260903133101 77 109 3.0 0.0 0.00 0.00 0.00 89 1009.2
20260903131556 77 116 3.0 0.0 0.00 0.00 0.00 89 1009.1
20260903130057 76 107 2.0 0.0 0.00 0.00 0.00 90 1009.2
20260903124607 75 101 3.0 0.0 0.00 0.00 0.00 90 1009.2
20260903123056 75 104 2.0 0.0 0.00 0.00 0.00 90 1009.0
20260903121600 75 103 3.0 0.0 0.00 0.00 0.00 89 1008.8
20260903120101 75 103 3.0 0.0 0.00 0.00 0.00 89 1008.7
20260903114553 75 102 2.0 0.0 0.00 0.00 0.00 89 1008.7
20260903113130 75 101 3.0 0.0 0.00 0.00 0.00 89 1008.7
20260903111552 75 100 3.0 0.0 0.00 0.00 0.00 89 1008.7
20260903110056 75 103 1.0 0.0 0.00 0.00 0.00 88 1008.7
20260903104601 75 103 1.0 0.0 0.00 0.00 0.00 88 1008.5
20260903103050 75 102 1.0 0.0 0.00 0.00 0.00 87 1008.4
20260903101552 75 102 2.0 0.0 0.00 0.00 0.00 87 1008.4
20260903100048 75 101 4.0 0.0 0.00 0.00 0.00 86 1008.7
20260903094553 75 105 2.0 0.0 0.00 0.00 0.00 86 1008.7
20260903093047 75 105 1.0 0.0 0.00 0.00 0.00 85 1008.7
20260903091551 76 105 2.0 0.0 0.00 0.00 0.00 85 1008.7
20260903090049 76 106 0.0 0.0 0.00 0.00 0.00 85 1008.3
20260903084548 76 106 1.0 0.0 0.00 0.00 0.00 86 1008.3
20260903083045 76 106 1.0 0.0 0.00 0.00 0.00 85 1008.3
20260903081545 76 106 1.0 0.0 0.00 0.00 0.00 85 1008.4
20260903080044 75 106 0.0 0.0 0.00 0.00 0.00 85 1008.2
20260903074543 76 106 1.0 0.0 0.00 0.00 0.00 85 1008.3
20260903073042 76 107 0.0 0.0 0.00 0.00 0.00 85 1008.3
20260903071552 76 107 0.0 0.0 0.00 0.00 0.00 84 1008.6
20260903070040 76 107 0.0 0.0 0.00 0.00 0.00 83 1008.7
20260903064538 76 107 0.0 0.0 0.00 0.00 0.00 83 1008.6
20260903063037 77 107 0.0 0.0 0.00 0.00 0.00 82 1008.6
20260903061535 77 107 0.0 0.0 0.00 0.00 0.00 81 1008.7
20260903060033 78 107 0.0 0.0 0.00 0.00 0.00 79 1008.9
20260903054531 78 107 1.0 0.0 0.00 0.00 0.00 79 1009.1
20260903053028 78 107 2.0 0.0 0.00 0.00 0.00 78 1009.1
20260903051546 79 105 2.0 0.0 0.00 0.00 0.00 77 1009.2
20260903050025 79 101 3.0 0.0 0.00 0.00 0.00 76 1009.1
20260903044533 79 106 4.0 0.0 0.00 0.00 0.00 75 1009.1
20260903043103 80 86 4.0 0.0 0.00 0.00 0.00 74 1008.9
20260903041524 81 102 6.0 0.0 0.00 0.00 0.00 72 1008.8
20260903040024 81 90 6.0 0.0 0.00 0.00 0.00 71 1008.8
20260903034535 81 76 7.0 0.0 0.00 0.00 0.00 70 1008.7
20260903033023 82 103 7.0 0.0 0.00 0.00 0.00 70 1008.8
20260903031523 83 98 7.0 0.0 0.00 0.00 0.00 69 1008.7
20260903030021 83 95 9.0 0.0 0.00 0.00 0.00 68 1008.6
20260903024525 84 79 9.0 0.0 0.00 0.00 0.00 67 1008.4
20260903023020 85 99 9.0 0.0 0.00 0.00 0.00 65 1008.1
20260903021520 85 78 6.0 0.0 0.00 0.00 0.00 64 1008.1
20260903020023 86 96 6.0 0.0 0.00 0.00 0.00 62 1008.0
20260903014522 87 82 7.0 0.0 0.00 0.00 0.00 60 1007.8
20260903013021 87 77 8.0 0.0 0.00 0.00 0.00 59 1007.6
20260903011519 88 108 6.0 0.0 0.00 0.00 0.00 59 1007.6
20260903010018 89 103 7.0 0.0 0.00 0.00 0.00 58 1007.5
20260903004517 90 106 6.0 0.0 0.00 0.00 0.00 57 1007.4
20260903003017 90 135 7.0 0.0 0.00 0.00 0.00 56 1007.3
20260903001518 91 123 8.0 0.0 0.00 0.00 0.00 53 1007.3
20260903000016 93 103 10.0 0.0 0.00 0.00 0.00 48 1007.2
20260902234522 93 84 11.0 0.0 0.00 0.00 0.00 46 1007.0
20260902233019 94 121 9.0 0.0 0.00 0.00 0.00 47 1007.0
20260902231515 94 98 11.0 0.0 0.00 0.00 0.00 48 1007.0
20260902230014 97 61 7.0 0.0 0.00 0.00 0.00 41 1006.7
20260902224518 97 88 8.0 0.0 0.00 0.00 0.00 41 1006.7
20260902223023 98 56 7.0 0.0 0.00 0.00 0.00 40 1006.7
20260902221517 98 63 6.0 0.0 0.00 0.00 0.00 39 1006.7
20260902220012 99 64 4.0 0.0 0.00 0.00 0.00 40 1007.0
20260902214511 98 40 6.0 0.0 0.00 0.00 0.00 40 1007.0
20260902213011 97 47 6.0 0.0 0.00 0.00 0.00 40 1007.1
20260902211511 98 26 6.0 0.0 0.00 0.00 0.00 39 1007.3
20260902210009 97 55 7.0 0.0 0.00 0.00 0.00 41 1007.6
20260902204513 98 67 4.0 0.0 0.00 0.00 0.00 40 1007.6
20260902203009 96 59 8.0 0.0 0.00 0.00 0.00 43 1007.9
20260902201507 97 62 9.0 0.0 0.00 0.00 0.00 41 1008.0
20260902200006 97 50 8.0 0.0 0.00 0.00 0.00 41 1008.1